Location: Bremen
(53.0793°N, 8.8017°E)
Time: 21:28:57
(UTC+01:00)

ISS - Visible Passes

Search period start: 12 January 2025 00:00
Search period end: 22 January 2025 00:00
Orbit: 415 x 418 km, 51.6° (Epoch: 12 January)

Date Brightness Start Highest point End Pass type
(mag) Time Alt. Az. Time Alt. Az. Time Alt. Az.
14 Jan -1.5 18:51:00 10° S 18:52:13 15° SSE 18:52:13 15° SSE visible
15 Jan -1.4 18:03:53 10° SSE 18:05:02 11° SE 18:05:59 10° ESE visible
15 Jan -1.1 19:37:57 10° SW 19:38:54 17° SW 19:38:54 17° SW visible
16 Jan -2.5 18:49:50 10° SW 18:52:34 29° SSE 18:52:34 29° SSE visible
17 Jan -2.0 18:01:51 10° SSW 18:04:29 22° SSE 18:06:11 15° ESE visible
17 Jan -1.6 19:37:31 10° WSW 19:39:05 25° WSW 19:39:05 25° WSW visible
18 Jan -3.3 18:49:10 10° WSW 18:52:24 47° SSE 18:52:38 46° SSE visible
19 Jan -2.8 18:00:51 10° SW 18:03:59 37° SSE 18:06:07 17° E visible
19 Jan -1.9 19:37:09 10° W 19:39:01 30° WSW 19:39:01 30° WSW visible
20 Jan -3.7 18:48:40 10° WSW 18:51:59 64° S 18:52:28 55° SE visible
20 Jan -0.2 20:25:18 10° W 20:25:22 10° W 20:25:22 10° W visible
21 Jan -3.4 18:00:11 10° WSW 18:03:28 55° SSE 18:05:53 17° E visible
21 Jan -2.1 19:36:45 10° W 19:38:47 33° WSW 19:38:47 33° WSW visible
